Preview of NWS' New Version of Forecast
This preview is not operational and should not be used for support decisions.
Latest weather observations around

Columbia, Columbia Regional Airport (KCOU)

Using English Units (Switch to International System of Units)
Date/ Time (CDT) Wind (mph) Vis. (mi) Weather Sky Cond. Temp (°F) Rel. Humidity Wind Chill (°F) Heat Index (°F) Pressure Precip. (in)
Air Dwpt 6 hour Altimeter (inHg) Sea level (inHg) 1 hr 3 hr 6 hr
Max Min
Sep 20 14:54 SSE 13 10 Partly Cloudy SCT100 86 67     53%   89 30.07 30.04      
Sep 20 13:54 S 8 10 Partly Cloudy SCT110 84 69     61%   88 30.08 30.05      
Sep 20 12:54 SSE 10 10 Mostly Cloudy SCT065 BKN090 84 68     59%   87 30.09 30.06      
Sep 20 11:54 S 10 10 Clear CLR 84 70     63%   88 30.1 30.07      
Sep 20 10:54 S 8 10 Clear CLR 81 70     69%   84 30.11 30.08      
Sep 20 09:54 S 9 10 Clear CLR 78 69     74%   79 30.11 30.08      
Sep 20 08:54 SE 6 10 Clear CLR 73 67     81%   74 30.09 30.06      
Sep 20 07:54 ESE 7 10 Clear CLR 71 66     84%   72 30.07 30.04      
Sep 20 06:54 SE 8 10 Clear CLR 69 65     87%     30.06 30.03      
Sep 20 05:54 SE 7 10 Clear CLR 70 65     84%     30.06 30.03      
Sep 20 04:54 ESE 6 10 Clear CLR 71 65     81%   72 30.06 30.03      
Sep 20 03:54 ESE 6 10 Clear CLR 72 66     82%   73 30.05 30.02      
Sep 20 02:54 SE 6 10 Clear CLR 72 66     82%   73 30.06 30.03      
Sep 20 01:54 SE 6 10 Clear CLR 73 67     81%   74 30.06 30.03      
Sep 20 00:54 SE 7 10 Clear CLR 74 67     79%   75 30.05 30.02      
Sep 19 23:54 SE 7 10 Clear CLR 75 68     79%   76 30.05 30.02      
Sep 19 22:54 SE 7 10 Clear CLR 76 68     76%   77 30.04 30.01      
Sep 19 21:54 ESE 7 10 Clear CLR 78 68     71%   79 30.03 30      
Sep 19 20:54 E 6 10 Clear CLR 79 68     69%   80 30.01 29.98      
Sep 19 19:54 ESE 5 10 Clear CLR 82 67     60%   85 30 29.97      
Sep 19 18:54 SE 5 10 Clear CLR 83 69     63%   87 29.99 29.96      
Sep 19 17:54 SSE 7 10 Clear CLR 87 71     59%   93 29.99 29.96      
Sep 19 16:54 SSE 6 10 Clear CLR 90 68     49%   94 30 29.97      
Sep 19 15:54 SE 5 10 Clear CLR 92 68     46%   96 30.01 29.98      
Sep 19 14:54 SSW 7 10 Clear CLR 91 68     47%   95 30.02 29.99      
Sep 19 13:54 SSE 6 10 Clear CLR 91 70     50%   97 30.04 30.01      
Sep 19 12:54 S 7 10 Clear CLR 88 71     57%   94 30.06 30.03      
Sep 19 11:54 SSW 8 10 Clear CLR 86 70     59%   91 30.07 30.04      
Sep 19 10:54 S 7 10 Clear CLR 83 71     67%   88 30.08 30.05      
Sep 19 08:54 SE 7 10 Mostly Cloudy BKN095 76 69     79%   77 30.06 30.03      
Sep 19 07:54 SSE 7 9 Clear CLR 71 68     90%   72 30.05 30.02      
Sep 19 06:54 ESE 7 8 Clear CLR 69 66     90%     30.02 29.99      
Sep 19 05:54 SE 7 10 Clear CLR 70 67     90%     30.01 29.98      
Sep 19 04:54 ESE 6 10 Clear CLR 71 68     90%   72 30.02 29.98      
Sep 19 03:54 ESE 6 10 Clear CLR 72 68     87%   73 30.02 29.99      
Sep 19 02:54 SE 7 10 Clear CLR 72 68     87%   73 30.02 29.99      
Sep 19 01:54 ESE 6 10 Clear CLR 74 69     85%   75 30.02 29.99      
Sep 19 00:54 ESE 7 10 Clear CLR 75 69     82%   76 30.02 29.99      
Sep 18 23:54 ESE 7 10 Clear CLR 76 69     79%   77 30.02 29.98      
Sep 18 22:54 SE 6 10 Clear CLR 77 70     79%   78 30.02 29.99      
Sep 18 21:54 SE 7 10 Clear CLR 78 70     76%   79 30.02 29.98      
Sep 18 20:54 ESE 7 10 Clear CLR 79 70     74%   82 30.02 29.99      
Sep 18 19:54 ESE 6 10 Clear CLR 81 70     69%   84 30.01 29.98      
Sep 18 18:54 SE 6 10 Clear CLR 84 70     63%   88 29.99 29.96      
Sep 18 17:54 SE 5 10 Clear CLR 89 71     55%   95 29.99 29.96      
Sep 18 16:54 SE 5 10 Clear CLR 90 67     47%   93 30 29.96      
Sep 18 15:54 3 10 Clear CLR 91 68     47%   95 30.01 29.98      
Sep 18 14:54 SSE 5 10 Clear CLR 91 67     45%   94 30.02 29.99      
Sep 18 13:54 6 6 Haze FEW070 90 71     54%   96 30.04 30.01      
Sep 18 12:54 5 10 Mostly Cloudy BKN075 88 70     55%   93 30.05 30.03      
Sep 18 11:54 5 10 Clear CLR 87 70     57%   92 30.05 30.02      
Notice The following observation data may not be complete
Sep 18 10:54   10 Clear CLR          %              
Sep 18 08:54 SSE 9 10 Clear CLR 76 69     79%   77 30.04 30.01      
Sep 18 07:54 SE 7 9 Mostly Cloudy BKN075 72 69     91%   73 30.04 30.01      
Sep 18 06:54 SE 8 6 Fog/Mist CLR 70 67     90%     30.03 30      
Sep 18 05:54 SE 7 8 Clear CLR 71 68     90%   72 30.03 30      
Sep 18 04:54 ESE 6 8 Clear CLR 71 68     90%   72 30.02 29.99      
Sep 18 03:54 ESE 6 9 Clear CLR 72 69     91%   73 30.02 29.99      
Sep 18 02:54 ESE 7 10 Clear CLR 73 70     90%   74 30.03 30      
Sep 18 01:54 ESE 8 10 Clear CLR 74 70     87%   75 30.03 30      
Sep 18 00:54 ESE 7 10 Clear CLR 75 71     88%   76 30.03 30      
Sep 17 23:54 ESE 8 10 Clear CLR 77 71     82%   78 30.03 30      
Sep 17 22:54 ESE 8 10 Clear CLR 78 71     79%   79 30.03 30      
Sep 17 21:54 E 7 10 Clear   78 70     76%   79 30.02 29.99      
Sep 17 20:54 E 7 10 Clear CLR 79 70     74%   82 30.02 29.99      
Sep 17 19:54 E 6 10 Clear CLR 80 70     71%   83 30 29.97      
Sep 17 18:54 E 6 10 Clear CLR 84 71     65%   89 30 29.97      
Sep 17 17:54 E 3 10 Clear CLR 89 70     53%   94 30 29.97      
Sep 17 16:54 ESE 5 10 Clear CLR 91 68     47%   95 30.01 29.98      
Sep 17 15:54 SE 5 10 Mostly Clear FEW055 90 68     49%   94 30.02 29.99      
Sep 17 14:54 SE 5 10 Clear CLR 91 69     49%   96 30.04 30      
May 15 03:54 SSE 9 10 Clear   66 60     81%     29.91 29.89      
May 14 21:01   10 Thunderstorms and Rain FEW080 BKN110 67 64     90%     29.84   0    
May 14 19:49   9 Thunderstorms and Rain FEW032 SCT060 OVC110 66 63     88%     29.92   0    
May 12 12:54 SSE 11 10 Clear CLR 76 66     71%   77 29.96 29.94      
May 11 19:54 S 10 10 Clear CLR 79 58     49%   79 29.8 29.77      
Jun 12 01:54 S 7 10 Clear CLR 73 66     79%   74 29.94 29.91      
Jun 11 10:54 S 18 10 Clear CLR 81 67     62%   83 29.96 29.93      
Jun 10 20:54 S 10 10 Clear CLR 77 62     60%   77 29.86 29.83      
Jun 10 06:54 S 8 10 Clear CLR 64 59     84%     29.92 29.9      
Jun 08 19:54 S 5 10 Clear CLR 74 54     50%   73 29.92 29.91      
Jun 07 07:54 NE 8 10 Clear CLR 64 49     58%     30.1 30.09      
Jun 06 05:54 NE 11 10 Clear CLR 63 53     70%     29.97 29.94